DW1520 Weather Reports


Display with metric or nautical units.
time (UTC)temp
F
wind
direction
speed
MPH
gust
MPH
rain 1hr
in
rain 24hr
in
rain mn
in
humidity
%
barometer
mb
20260906045506 72 348 0.0 0.0 0.00 0.00 0.00 88 1014.9
20260906045006 72 348 0.0 0.0 0.00 0.00 0.00 88 1014.8
20260906044006 72 348 1.0 2.0 0.00 0.00 0.00 89 1014.8
20260906043006 72 348 0.0 1.0 0.00 0.00 0.00 89 1014.8
20260906042506 72 348 0.0 1.0 0.00 0.00 0.00 89 1014.8
20260906042006 72 348 0.0 1.0 0.00 0.00 0.00 89 1014.8
20260906041007 72 348 0.0 0.0 0.00 0.00 0.00 89 1014.7
20260906040507 72 348 0.0 1.0 0.00 0.00 0.00 89 1014.7
20260906040006 72 348 0.0 0.0 0.00 0.00 0.00 89 1014.7
20260906035506 72 348 0.0 0.0 0.00 0.00 0.00 89 1014.7
20260906035006 72 348 0.0 0.0 0.00 0.00 0.00 89 1014.8
20260906034006 72 348 0.0 0.0 0.00 0.00 0.00 88 1014.8
20260906033007 73 348 0.0 0.0 0.00 0.00 0.00 88 1014.8
20260906032506 73 348 0.0 0.0 0.00 0.00 0.00 88 1014.8
20260906032006 73 348 0.0 0.0 0.00 0.00 0.00 88 1014.8
20260906031506 73 348 0.0 0.0 0.00 0.00 0.00 88 1014.7
20260906030507 73 348 0.0 0.0 0.00 0.00 0.00 88 1014.5
20260906030006 73 348 0.0 0.0 0.00 0.00 0.00 88 1014.4
20260906025506 73 348 0.0 0.0 0.00 0.00 0.00 88 1014.5
20260906024506 73 348 0.0 1.0 0.00 0.00 0.00 87 1014.3
20260906024007 73 348 0.0 1.0 0.00 0.00 0.00 87 1014.3
20260906023506 73 348 0.0 0.0 0.00 0.00 0.00 87 1014.2
20260906022506 73 348 0.0 0.0 0.00 0.00 0.00 87 1014.1
20260906022007 73 348 0.0 1.0 0.00 0.00 0.00 87 1013.9
20260906021506 74 348 1.0 2.0 0.00 0.00 0.00 87 1013.8
20260906021007 74 348 0.0 0.0 0.00 0.00 0.00 87 1013.7
20260906020507 74 348 0.0 1.0 0.00 0.00 0.00 87 1013.5
20260906020006 74 348 1.0 2.0 0.00 0.00 0.00 87 1013.4
20260906015506 74 348 0.0 0.0 0.00 0.00 0.00 87 1013.4
20260906014006 74 348 0.0 0.0 0.00 0.00 0.00 87 1013.3
20260906013507 74 348 0.0 2.0 0.00 0.00 0.00 87 1013.2
20260906013007 74 348 0.0 0.0 0.00 0.00 0.00 86 1013.2
20260906012507 74 348 1.0 2.0 0.00 0.00 0.00 86 1013.1
20260906012007 74 348 0.0 3.0 0.00 0.00 0.00 86 1012.9
20260906011506 74 348 0.0 3.0 0.00 0.00 0.00 86 1012.8
20260906011006 75 348 0.0 2.0 0.00 0.00 0.00 86 1012.7
20260906010506 75 348 0.0 2.0 0.00 0.00 0.00 85 1012.7
20260906010006 75 348 0.0 0.0 0.00 0.00 0.00 85 1012.7
20260906005506 75 348 0.0 1.0 0.00 0.00 0.00 85 1012.7
20260906005006 75 348 0.0 0.0 0.00 0.00 0.00 84 1012.7
20260906004506 75 348 0.0 0.0 0.00 0.00 0.00 84 1012.7
20260906004007 75 348 0.0 0.0 0.00 0.00 0.00 84 1012.6
20260906003506 76 348 0.0 1.0 0.00 0.00 0.00 84 1012.5
20260906003006 76 348 0.0 2.0 0.00 0.00 0.00 83 1012.4
20260906002506 76 348 0.0 2.0 0.00 0.00 0.00 83 1012.4
20260906002006 76 344 0.0 0.0 0.00 0.00 0.00 82 1012.5
20260906001506 76 344 0.0 1.0 0.00 0.00 0.00 82 1012.5
20260906001007 76 344 0.0 1.0 0.00 0.00 0.00 82 1012.6
20260906000506 76 344 0.0 2.0 0.00 0.00 0.00 82 1012.7
20260906000006 76 344 0.0 1.0 0.00 0.00 0.00 82 1012.7
20260905235506 77 344 0.0 2.0 0.00 0.00 0.00 81 1012.6
20260905235007 77 344 0.0 2.0 0.00 0.00 0.00 81 1012.6
20260905234506 77 344 1.0 3.0 0.00 0.00 0.00 81 1012.6
20260905234006 77 163 1.0 7.0 0.00 0.00 0.00 81 1012.5
20260905233507 77 165 2.0 7.0 0.00 0.00 0.00 81 1012.4
20260905233006 77 69 0.0 3.0 0.00 0.00 0.00 81 1012.4
20260905232506 77 49 0.0 3.0 0.00 0.00 0.00 81 1012.4
20260905232006 77 46 2.0 3.0 0.00 0.00 0.00 80 1012.4
20260905231506 77 355 1.0 3.0 0.00 0.00 0.00 80 1012.3
20260905230006 77 35 2.0 5.0 0.00 0.00 0.00 80 1012.2
20260905225506 77 32 2.0 5.0 0.00 0.00 0.00 79 1012.1
20260905225006 77 94 1.0 3.0 0.00 0.00 0.00 79 1012.0
20260905224506 77 338 2.0 5.0 0.00 0.00 0.00 80 1011.9
20260905224006 77 358 1.0 5.0 0.00 0.00 0.00 80 1011.9
20260905223506 77 26 4.0 7.0 0.00 0.00 0.00 80 1011.9
20260905222006 78 66 3.0 6.0 0.00 0.00 0.00 79 1011.9
20260905221506 78 2 2.0 9.0 0.00 0.00 0.00 79 1011.9
20260905220506 78 11 2.0 5.0 0.00 0.00 0.00 79 1011.8
20260905220006 78 22 3.0 9.0 0.00 0.00 0.00 79 1011.8
20260905215506 78 65 3.0 9.0 0.00 0.00 0.00 79 1011.7
20260905215007 78 11 2.0 6.0 0.00 0.00 0.00 79 1011.8
20260905214506 78 19 2.0 8.0 0.00 0.00 0.00 80 1012.0
20260905214006 78 22 1.0 7.0 0.00 0.00 0.00 80 1011.9
20260905213506 78 46 3.0 7.0 0.00 0.00 0.00 80 1011.8
20260905213006 78 12 2.0 5.0 0.00 0.00 0.00 80 1011.9
20260905212506 78 336 2.0 3.0 0.00 0.00 0.00 80 1012.0
20260905212006 78 0 1.0 3.0 0.00 0.00 0.00 80 1012.2
20260905211006 78 352 2.0 5.0 0.00 0.00 0.00 79 1012.1
20260905210506 79 352 2.0 3.0 0.00 0.00 0.00 79 1012.1
20260905210006 79 343 2.0 3.0 0.00 0.00 0.00 79 1012.1
20260905205006 79 19 1.0 6.0 0.00 0.00 0.00 79 1012.3
20260905204506 79 76 2.0 3.0 0.00 0.00 0.00 79 1012.4
20260905204006 79 15 1.0 3.0 0.00 0.00 0.00 79 1012.5
20260905203006 79 336 2.0 5.0 0.00 0.00 0.00 79 1012.6
20260905202506 80 351 2.0 3.0 0.00 0.00 0.00 79 1012.6
20260905202006 80 0 2.0 3.0 0.00 0.00 0.00 79 1012.6
20260905201006 79 232 1.0 3.0 0.00 0.00 0.00 78 1012.9
20260905200006 79 193 0.0 3.0 0.00 0.00 0.00 79 1013.1
20260905195506 79 193 1.0 2.0 0.00 0.00 0.00 80 1013.2
20260905195007 79 194 0.0 2.0 0.00 0.00 0.00 80 1013.2
20260905194006 79 166 1.0 3.0 0.00 0.00 0.00 80 1013.3
20260905193506 79 116 1.0 3.0 0.00 0.00 0.00 80 1013.4
20260905193006 79 116 1.0 2.0 0.00 0.00 0.00 80 1013.5
20260905192506 79 116 1.0 3.0 0.00 0.00 0.00 79 1013.4
20260905192006 79 115 1.0 2.0 0.00 0.00 0.00 80 1013.3
20260905191506 79 121 0.0 2.0 0.00 0.00 0.00 79 1013.4
20260905191006 79 121 1.0 3.0 0.00 0.00 0.00 79 1013.5
20260905190506 79 121 1.0 5.0 0.00 0.00 0.00 79 1013.5
20260905190006 79 161 1.0 5.0 0.00 0.00 0.00 80 1013.5
20260905185506 79 111 1.0 3.0 0.00 0.00 0.00 81 1013.4
20260905185007 79 110 0.0 3.0 0.00 0.00 0.00 81 1013.4
20260905184006 78 303 1.0 3.0 0.00 0.00 0.00 81 1013.6
20260905183506 78 344 1.0 3.0 0.00 0.00 0.00 83 1013.5
20260905183006 78 34 2.0 3.0 0.00 0.00 0.00 82 1013.4
20260905182506 77 5 0.0 3.0 0.00 0.00 0.00 84 1013.6
20260905182006 77 5 0.0 1.0 0.00 0.00 0.00 84 1013.8
20260905181506 76 5 1.0 2.0 0.00 0.00 0.00 85 1013.9
20260905181006 76 15 0.0 2.0 0.00 0.00 0.00 85 1013.9
20260905180506 76 31 0.0 2.0 0.00 0.00 0.00 85 1014.0
20260905180006 76 31 0.0 0.0 0.00 0.00 0.00 85 1014.0
20260905175506 76 31 0.0 0.0 0.00 0.00 0.00 85 1014.0
20260905174506 76 355 0.0 1.0 0.00 0.00 0.00 86 1014.2
20260905174006 76 355 0.0 1.0 0.00 0.00 0.00 87 1014.3
20260905173506 75 355 0.0 2.0 0.00 0.00 0.00 87 1014.2
20260905173007 75 355 0.0 2.0 0.00 0.00 0.00 87 1014.2
20260905172505 75 50 1.0 3.0 0.00 0.00 0.00 87 1014.3
20260905172006 75 56 1.0 2.0 0.00 0.00 0.00 87 1014.3
20260905171506 74 325 0.0 2.0 0.00 0.00 0.00 87 1014.4
20260905171006 74 325 0.0 1.0 0.00 0.00 0.00 87 1014.4
20260905170506 74 325 1.0 2.0 0.00 0.00 0.00 88 1014.4
20260905165505 74 325 1.0 2.0 0.00 0.00 0.00 88 1014.5
20260905165006 74 324 1.0 3.0 0.00 0.00 0.00 88 1014.4
20260905164506 74 332 1.0 3.0 0.00 0.00 0.00 88 1014.2
20260905164006 74 350 1.0 3.0 0.00 0.00 0.00 88 1014.1
20260905163506 74 333 1.0 3.0 0.00 0.00 0.00 88 1014.0
20260905162506 74 29 1.0 3.0 0.00 0.00 0.00 89 1014.0
20260905162006 74 29 1.0 3.0 0.00 0.00 0.00 88 1014.0
20260905161006 74 32 2.0 3.0 0.00 0.00 0.00 88 1014.0
20260905160506 74 53 2.0 3.0 0.00 0.00 0.00 89 1014.0
20260905160006 74 144 0.0 2.0 0.00 0.00 0.00 89 1014.0
20260905155506 74 106 1.0 2.0 0.00 0.00 0.00 89 1014.0
20260905155006 73 21 1.0 3.0 0.00 0.00 0.00 90 1013.9
20260905154506 73 331 1.0 3.0 0.00 0.00 0.00 90 1013.8
20260905153506 73 38 1.0 3.0 0.00 0.00 0.00 90 1013.8
20260905153006 73 33 2.0 3.0 0.00 0.00 0.00 91 1013.7
20260905152006 72 13 1.0 3.0 0.00 0.00 0.00 91 1013.7
20260905151506 72 12 0.0 3.0 0.00 0.00 0.00 92 1013.8
20260905151006 72 1 1.0 3.0 0.00 0.00 0.00 92 1013.8
20260905150006 72 5 0.0 3.0 0.00 0.00 0.00 92 1013.5
20260905145506 72 11 1.0 3.0 0.00 0.00 0.00 92 1013.5
20260905145006 71 355 1.0 3.0 0.00 0.00 0.00 92 1013.5
20260905144506 71 48 1.0 3.0 0.00 0.00 0.00 92 1013.5
20260905144006 71 13 0.0 3.0 0.00 0.00 0.00 92 1013.5
20260905143506 71 26 1.0 3.0 0.00 0.00 0.00 92 1013.5
20260905142506 71 5 0.0 2.0 0.00 0.00 0.00 92 1013.4
20260905142006 71 5 1.0 2.0 0.00 0.00 0.00 93 1013.4
20260905141506 71 5 0.0 3.0 0.00 0.00 0.00 93 1013.3
20260905141006 71 33 0.0 2.0 0.00 0.00 0.00 93 1013.3
20260905140506 71 12 0.0 3.0 0.00 0.00 0.00 93 1013.3
20260905140005 71 12 0.0 2.0 0.00 0.00 0.00 92 1013.2
20260905135006 70 16 1.0 2.0 0.00 0.00 0.00 92 1013.1
20260905134506 70 16 1.0 3.0 0.00 0.00 0.00 93 1013.1
20260905134006 70 0 1.0 3.0 0.00 0.00 0.00 93 1013.1
20260905133506 70 44 1.0 3.0 0.00 0.00 0.00 93 1013.0
20260905133006 70 44 1.0 3.0 0.00 0.00 0.00 93 1012.9
20260905132506 70 37 1.0 3.0 0.00 0.00 0.00 93 1012.9
20260905132006 70 342 0.0 2.0 0.00 0.00 0.00 92 1012.8
20260905131506 70 57 1.0 3.0 0.00 0.00 0.00 92 1012.6
20260905131006 70 17 1.0 3.0 0.00 0.00 0.00 92 1012.5
20260905130506 70 11 1.0 2.0 0.00 0.00 0.00 92 1012.3
20260905130006 70 25 1.0 3.0 0.00 0.00 0.00 92 1012.2
20260905125510 70 0 1.0 3.0 0.00 0.00 0.00 92 1012.1
20260905125006 70 9 2.0 3.0 0.00 0.00 0.00 93 1011.9
20260905124506 70 7 2.0 3.0 0.00 0.00 0.00 93 1011.8
20260905124006 70 34 2.0 5.0 0.00 0.00 0.00 93 1011.7
20260905123505 70 345 1.0 3.0 0.00 0.00 0.00 92 1011.6
20260905123006 70 34 1.0 2.0 0.00 0.00 0.00 92 1011.6
20260905122006 71 358 1.0 3.0 0.00 0.00 0.00 93 1011.7
20260905121506 71 351 1.0 2.0 0.00 0.00 0.00 93 1011.6
20260905120506 71 351 1.0 3.0 0.00 0.00 0.00 93 1011.6
20260905120006 71 355 1.0 3.0 0.00 0.00 0.00 93 1011.6
20260905115505 71 355 1.0 3.0 0.00 0.00 0.00 93 1011.7
20260905115006 71 355 0.0 2.0 0.00 0.00 0.00 93 1011.7
20260905114506 71 355 1.0 3.0 0.00 0.00 0.00 92 1011.6
20260905114006 71 355 0.0 1.0 0.00 0.00 0.00 93 1011.7
20260905113508 71 355 0.0 2.0 0.00 0.00 0.00 93 1011.6
20260905113006 71 355 1.0 3.0 0.00 0.00 0.00 93 1011.5
20260905112506 71 9 1.0 2.0 0.00 0.00 0.00 93 1011.5
20260905112006 71 5 1.0 3.0 0.00 0.00 0.00 93 1011.4
20260905111506 71 16 1.0 2.0 0.00 0.00 0.00 92 1011.4
20260905111006 71 26 1.0 3.0 0.00 0.00 0.00 92 1011.4
20260905110506 71 50 0.0 2.0 0.00 0.00 0.00 92 1011.4
20260905110005 71 50 0.0 1.0 0.00 0.00 0.00 93 1011.5
20260905105506 71 50 1.0 2.0 0.00 0.00 0.00 93 1011.4
20260905105006 71 355 0.0 2.0 0.00 0.00 0.00 93 1011.4
20260905104006 71 355 0.0 1.0 0.00 0.00 0.00 93 1011.4
20260905103506 71 355 0.0 1.0 0.00 0.00 0.00 93 1011.4
20260905103006 71 355 1.0 3.0 0.00 0.00 0.00 93 1011.4
20260905102506 71 355 1.0 3.0 0.00 0.00 0.00 93 1011.3
20260905102006 71 79 0.0 1.0 0.00 0.00 0.00 92 1011.5
20260905101006 70 79 0.0 2.0 0.00 0.00 0.00 92 1011.1
20260905100506 70 25 0.0 2.0 0.00 0.00 0.00 92 1010.8
20260905100006 70 340 1.0 3.0 0.00 0.00 0.00 92 1010.8
20260905095506 70 22 0.0 3.0 0.00 0.00 0.00 92 1010.7
20260905095006 70 22 1.0 2.0 0.00 0.00 0.00 92 1010.7
20260905094505 70 348 1.0 2.0 0.00 0.00 0.00 92 1010.6
20260905094006 70 5 1.0 2.0 0.00 0.00 0.00 92 1010.6
20260905093505 70 5 1.0 2.0 0.00 0.00 0.00 92 1010.7
20260905093006 70 5 1.0 3.0 0.00 0.00 0.00 92 1010.6
20260905092506 70 334 1.0 3.0 0.00 0.00 0.00 92 1010.6
20260905091506 70 327 0.0 2.0 0.00 0.00 0.00 92 1010.8
20260905090506 70 6 1.0 3.0 0.00 0.00 0.00 92 1010.9
20260905090006 70 5 0.0 2.0 0.00 0.00 0.00 92 1010.9
20260905085506 70 5 0.0 1.0 0.00 0.00 0.00 92 1011.0
20260905085006 70 5 0.0 3.0 0.00 0.00 0.00 92 1011.0
20260905084506 69 5 1.0 2.0 0.00 0.00 0.00 92 1011.0
20260905084006 69 5 0.0 0.0 0.00 0.00 0.00 92 1011.1
20260905083506 69 5 0.0 0.0 0.00 0.00 0.00 92 1011.2
20260905082506 70 5 0.0 0.0 0.00 0.00 0.00 92 1011.2
20260905082006 70 5 0.0 2.0 0.00 0.00 0.00 92 1011.0
20260905081505 70 5 0.0 1.0 0.00 0.00 0.00 91 1011.0
20260905081006 70 5 0.0 0.0 0.00 0.00 0.00 91 1011.1
20260905080505 70 5 0.0 1.0 0.00 0.00 0.00 91 1011.1
20260905080006 70 5 0.0 0.0 0.00 0.00 0.00 91 1011.2
20260905075505 71 5 0.0 1.0 0.00 0.00 0.00 91 1011.1
20260905075006 71 5 0.0 0.0 0.00 0.00 0.00 91 1011.1
20260905074506 71 5 0.0 0.0 0.00 0.00 0.00 91 1011.1
20260905073505 71 5 0.0 1.0 0.00 0.00 0.00 91 1011.0
20260905073006 71 5 0.0 1.0 0.00 0.00 0.00 91 1011.0
20260905072505 71 5 0.0 1.0 0.00 0.00 0.00 91 1011.1
20260905072006 71 5 0.0 1.0 0.00 0.00 0.00 91 1011.0
20260905071506 71 5 0.0 0.0 0.00 0.00 0.00 91 1010.9
20260905070506 71 5 0.0 0.0 0.00 0.00 0.00 91 1010.8
20260905070005 72 5 0.0 0.0 0.00 0.00 0.00 91 1010.9
20260905065006 72 5 0.0 0.0 0.00 0.00 0.00 91 1010.8
20260905064505 72 5 0.0 1.0 0.00 0.00 0.00 91 1010.9
20260905063505 72 5 0.0 1.0 0.00 0.00 0.00 90 1010.8
20260905063006 72 5 0.0 0.0 0.00 0.00 0.00 90 1010.9
20260905062505 72 5 0.0 1.0 0.00 0.00 0.00 90 1010.7
20260905062006 73 5 0.0 1.0 0.00 0.00 0.00 90 1010.7
20260905061506 73 5 0.0 0.0 0.00 0.00 0.00 90 1010.8
20260905060505 73 5 0.0 0.0 0.00 0.00 0.00 90 1010.6
20260905060005 73 5 0.0 1.0 0.00 0.00 0.00 90 1010.7
20260905055505 73 5 0.0 1.0 0.00 0.00 0.00 90 1010.7
20260905055006 73 5 0.0 1.0 0.00 0.00 0.00 90 1010.7
20260905054505 74 5 0.0 1.0 0.00 0.00 0.00 90 1010.6
20260905053006 74 5 0.0 1.0 0.00 0.00 0.00 90 1010.5
20260905052506 74 5 0.0 1.0 0.00 0.00 0.00 90 1010.4
20260905052005 74 5 0.0 2.0 0.00 0.00 0.00 90 1010.3
20260905051506 75 5 0.0 0.0 0.00 0.00 0.00 90 1010.2
20260905051006 75 5 0.0 0.0 0.00 0.00 0.00 90 1010.2
20260905050505 75 5 0.0 0.0 0.00 0.00 0.00 90 1010.2
20260905050006 75 5 0.0 0.0 0.00 0.00 0.00 90 1010.2